Temp
15 14 13 13 12 12 11 10 10 9 9 8 7 7 6 6 5 5 4 3 3 3 2 2 3 2 2 2 1 1 -0 -1 -2 -2 -2 -2 -2 -2 -2 -2 -2 -2 -1
14 13 13 12 11 11 11 10 9 9 8 7 7 6 6 5 5 4 4 3 2 2 2 2 2 2 1 1 0 -1 -1 -2 -3 -4 -4 -4 -4 -3 -3 -3 -3 -2 -2
13 13 12 11 11 11 10 8 9 8 7 7 6 6 5 5 4 4 3 3 2 2 1 1 1 1 1 0 -0 -1 -2 -3 -3 -4 -5 -5 -4 -4 -4 -3 -3 -3 -3
13 12 12 11 11 10 10 9 8 7 7 6 6 5 5 5 4 4 3 2 2 2 1 1 1 0 -0 -0 -1 -2 -3 -4 -4 -5 -5 -5 -5 -5 -4 -4 -4 -4 -4
12 12 12 11 11 9 9 9 7 7 6 6 5 5 5 4 3 3 3 2 2 1 1 0 0 -0 -0 -1 -2 -3 -4 -4 -5 -5 -6 -6 -6 -5 -5 -5 -5 -5 -5
12 12 11 10 9 8 7 7 7 6 6 6 5 5 4 3 3 3 2 1 1 0 -0 -0 -0 -1 -1 -2 -3 -3 -4 -5 -5 -6 -6 -6 -6 -6 -5 -6 -6 -6 -6
11 10 10 9 7 8 7 7 6 6 6 5 5 4 4 3 3 2 1 0 -0 -1 -1 -1 -1 -1 -2 -2 -3 -3 -4 -5 -6 -6 -6 -6 -6 -6 -5 -6 -6 -6 -6
10 9 8 7 7 7 7 6 6 5 5 5 4 4 3 3 2 1 0 -0 -1 -1 -1 -2 -2 -2 -2 -3 -3 -4 -5 -5 -6 -6 -6 -7 -6 -6 -6 -6 -6 -6 -6
8 7 6 6 6 6 5 4 4 4 5 4 4 4 3 2 2 1 -0 -1 -3 -2 -2 -2 -2 -3 -3 -4 -4 -5 -6 -6 -7 -7 -7 -6 -6 -6 -6 -5 -6 -6 -5
6 5 5 5 4 4 5 4 4 4 4 4 3 3 2 2 1 -0 -1 -2 -3 -2 -2 -3 -3 -3 -4 -4 -5 -6 -7 -6 -7 -7 -6 -6 -6 -6 -6 -6 -6 -6 -5
4 3 4 4 5 4 3 3 4 3 3 3 3 2 2 1 0 -0 -1 -2 -2 -3 -3 -3 -4 -4 -5 -5 -6 -6 -6 -7 -7 -7 -7 -7 -6 -6 -6 -6 -6 -6 -6
4 3 4 4 3 2 3 3 4 4 3 3 2 2 1 0 -0 -1 -1 -2 -2 -3 -3 -3 -4 -5 -5 -5 -5 -5 -6 -6 -6 -6 -6 -7 -7 -7 -7 -6 -6 -6 -5
4 3 2 2 3 3 3 3 3 3 3 3 2 1 1 0 -0 -1 -1 -2 -3 -3 -3 -4 -4 -5 -5 -5 -5 -5 -6 -6 -6 -6 -6 -7 -7 -7 -7 -7 -6 -6 -5
3 3 3 2 3 3 3 3 3 2 2 2 1 1 0 -0 -1 -1 -1 -2 -2 -3 -4 -4 -5 -5 -5 -5 -5 -5 -5 -5 -5 -6 -7 -7 -7 -7 -7 -7 -7 -7 -6
3 2 2 2 2 2 2 2 1 1 0 0 0 0 -0 -0 -1 -1 -2 -2 -3 -3 -4 -5 -5 -6 -5 -5 -5 -5 -5 -5 -5 -6 -6 -7 -8 -8 -8 -8 -7 -7 -7
3 2 2 2 1 1 1 1 1 0 0 -0 -0 -1 -1 -1 -1 -2 -2 -3 -3 -4 -5 -5 -5 -5 -5 -5 -5 -5 -5 -5 -5 -6 -7 -8 -8 -8 -8 -8 -8 -8 -8
3 3 2 2 1 1 1 1 0 1 1 0 -0 -1 -0 -1 -1 -2 -3 -3 -3 -4 -5 -5 -6 -5 -5 -5 -5 -5 -5 -5 -6 -6 -7 -8 -8 -8 -8 -8 -8 -8 -8
3 3 2 2 2 1 1 0 0 -1 -1 -1 -0 -0 -1 -1 -1 -2 -3 -4 -4 -4 -5 -6 -5 -5 -5 -5 -5 -4 -5 -5 -6 -6 -7 -7 -8 -8 -8 -8 -8 -8 -8
1 2 2 2 2 1 0 -1 -0 -1 -1 -1 -2 -1 -1 -1 -1 -2 -2 -3 -4 -5 -5 -6 -6 -6 -5 -5 -5 -5 -5 -5 -6 -6 -7 -8 -8 -8 -9 -9 -8 -8 -8
-1 -1 -1 -1 -1 -1 -1 -1 -1 -2 -2 -2 -2 -3 -2 -2 -2 -2 -3 -3 -4 -4 -5 -5 -5 -5 -5 -5 -4 -4 -5 -5 -6 -6 -7 -8 -8 -8 -9 -9 -9 -8 -8
-3 -2 -2 -2 -2 -2 -2 -2 -1 -2 -2 -2 -2 -2 -2 -3 -3 -3 -3 -3 -4 -4 -4 -4 -5 -4 -4 -4 -4 -4 -5 -5 -6 -6 -7 -8 -8 -8 -9 -9 -9 -8 -8
-5 -5 -4 -4 -3 -3 -3 -2 -2 -2 -2 -2 -2 -2 -3 -3 -3 -3 -3 -3 -3 -3 -3 -4 -4 -4 -4 -4 -4 -5 -5 -5 -6 -6 -7 -7 -8 -9 -9 -9 -9 -9 -9
-6 -6 -6 -5 -5 -4 -4 -3 -3 -2 -3 -3 -3 -3 -3 -3 -3 -3 -3 -3 -3 -3 -3 -4 -4 -4 -4 -4 -4 -5 -5 -5 -5 -6 -6 -7 -8 -9 -9 -9 -9 -9 -9
-7 -7 -7 -6 -5 -4 -4 -4 -3 -3 -4 -5 -5 -5 -5 -5 -4 -3 -3 -3 -3 -3 -3 -3 -4 -4 -4 -4 -4 -4 -5 -5 -5 -6 -7 -7 -8 -9 -9 -10 -10 -10 -10
-10 -9 -9 -9 -8 -7 -7 -7 -6 -7 -7 -8 -8 -8 -8 -8 -7 -7 -6 -6 -4 -4 -4 -4 -4 -4 -4 -4 -4 -4 -4 -5 -6 -6 -7 -8 -8 -9 -10 -10 -10 -10 -10
-12 -11 -12 -12 -11 -10 -9 -9 -9 -9 -10 -10 -10 -10 -10 -10 -10 -9 -9 -8 -7 -6 -5 -4 -4 -4 -4 -4 -4 -4 -5 -5 -6 -7 -7 -8 -8 -9 -10 -10 -10 -10 -10
Height
814 818 822 825 828 832 833 837 839 845 846 844 844 845 846 846 844 843 843 842 840 839 837 835 835 834 834 833 832 831 829 828 825 819 818 816 813 810 807 804 800 796 793
813 817 822 825 828 831 835 838 840 841 842 843 844 844 844 842 840 839 839 838 837 836 834 833 831 831 832 830 827 827 826 824 822 817 814 812 809 806 803 799 795 792 788
811 816 821 825 829 832 834 838 839 838 840 839 841 841 840 838 837 836 835 836 835 835 833 830 829 827 826 827 825 823 821 820 818 816 811 809 805 802 797 794 791 787 784
810 814 820 824 829 831 835 837 837 837 838 838 837 837 836 834 833 833 831 830 830 829 828 827 825 825 824 823 821 820 818 816 814 812 808 804 801 797 795 790 786 783 778
807 813 817 823 828 832 834 838 837 837 838 837 835 833 832 831 831 830 830 829 828 827 824 823 824 821 820 819 818 817 815 813 811 808 804 801 797 794 792 788 784 779 772
807 813 817 823 828 829 836 837 836 837 836 835 834 832 830 828 827 826 826 826 826 824 823 822 820 817 817 816 815 814 812 810 806 804 801 798 794 792 789 785 781 775 769
806 811 815 819 824 830 832 832 835 834 832 830 829 828 826 824 825 823 821 820 820 819 819 816 817 816 814 813 811 809 808 805 803 801 797 795 791 788 785 780 777 773 768
806 810 815 821 824 827 829 831 830 829 828 826 824 822 821 820 819 819 818 817 817 817 817 814 811 813 811 809 807 804 803 800 798 796 794 790 787 784 781 777 772 766 761
808 812 819 824 825 827 828 827 826 824 823 821 820 818 817 816 815 815 814 812 812 812 813 811 808 809 807 805 803 800 797 795 794 793 790 786 783 780 777 772 769 765 758
811 816 821 823 825 824 823 821 821 821 819 817 815 814 813 811 810 810 809 808 808 807 808 805 806 806 804 802 799 797 794 792 790 787 785 782 779 776 773 771 767 763 758
815 818 820 821 820 817 818 818 817 815 814 813 810 809 808 807 805 805 805 804 803 803 802 802 803 802 800 798 796 794 792 790 788 785 782 779 776 773 769 767 764 761 756
814 814 815 815 815 816 815 813 812 811 809 808 806 804 803 803 801 799 799 799 800 798 797 798 798 798 796 794 792 790 788 787 785 782 780 777 773 770 766 763 759 756 752
812 814 815 814 813 812 811 809 808 806 804 802 800 799 797 797 796 794 793 794 794 793 793 794 794 793 791 790 788 786 785 783 781 779 777 774 772 768 764 760 755 751 747
811 812 812 811 810 809 807 805 803 802 800 798 796 794 792 791 790 789 788 788 787 786 787 788 788 788 787 785 783 782 780 779 777 776 774 771 769 765 762 758 753 749 744
810 810 809 808 806 804 803 802 800 798 796 794 792 789 787 784 783 783 782 781 781 781 781 782 783 782 781 779 779 777 776 775 774 772 771 769 766 763 760 757 753 749 746
808 807 806 804 802 800 798 795 795 792 790 789 787 784 781 778 776 776 776 776 775 776 775 776 776 776 775 774 773 773 772 771 770 769 767 766 764 762 759 756 753 750 746
803 801 799 798 796 793 791 789 785 781 780 779 778 776 774 771 770 768 768 769 769 771 769 769 769 769 769 768 768 768 767 767 766 765 764 763 762 761 758 755 753 750 746
799 796 794 791 788 786 783 780 777 774 770 768 768 768 766 764 762 760 761 762 762 763 763 762 762 762 762 762 762 762 762 762 762 761 761 761 760 759 757 755 752 749 746
795 792 789 785 781 778 775 771 769 767 763 762 760 758 758 757 755 753 754 754 753 754 754 755 755 755 755 756 756 757 757 757 757 757 757 757 757 757 755 754 751 749 746
792 789 785 782 776 772 768 764 760 758 757 756 753 750 750 749 746 745 745 745 745 745 746 746 747 747 748 748 749 750 751 752 752 753 754 754 754 754 753 752 750 748 745
789 784 781 776 771 766 761 757 753 750 749 749 747 745 743 741 738 736 736 736 736 737 737 738 738 739 740 741 742 743 744 745 747 748 749 750 750 750 750 750 749 747 745
786 782 777 771 765 760 756 751 746 742 741 741 740 738 736 735 733 731 730 729 727 728 729 730 730 731 731 733 734 736 738 739 741 742 744 746 747 747 748 747 747 746 745
782 777 771 764 759 753 747 742 735 732 733 735 734 733 730 728 726 724 723 722 721 721 721 722 723 723 723 724 726 728 730 732 734 737 739 741 742 744 745 745 745 744 744
780 776 770 761 752 747 741 735 727 726 727 730 731 731 727 725 723 720 718 717 717 716 716 715 715 715 716 716 718 719 722 725 729 731 734 735 738 740 741 742 743 743 743
781 776 770 764 758 752 745 739 735 731 730 730 730 728 727 725 722 720 717 714 712 711 710 710 709 709 709 709 710 711 714 718 722 725 728 731 734 736 737 739 740 741 741
782 778 773 768 762 757 752 747 743 740 737 735 732 729 728 726 723 720 717 713 709 706 705 704 703 703 703 703 703 705 708 712 716 720 724 727 730 732 734 736 738 739 740
Wind_Speed
26 22 19 15 15 12 5 5 11 7 6 5 6 8 9 9 11 13 15 11 11 13 9 8 10 8 9 11 10 10 11 14 11 18 20 20 24 23 25 26 26 26 24
24 19 17 16 11 7 8 10 10 13 8 5 6 8 9 9 8 10 12 11 9 7 8 10 7 9 12 11 11 11 15 18 15 16 22 24 24 25 25 26 28 26 27
23 19 13 12 8 10 10 11 14 9 6 5 8 10 12 11 8 13 11 11 6 4 6 10 13 12 10 10 12 17 16 16 16 19 23 24 23 25 27 26 25 23 23
20 15 11 12 13 5 10 11 8 5 5 8 10 12 15 14 10 11 10 10 8 8 10 13 13 7 9 14 15 13 11 12 17 19 20 20 21 24 23 23 18 23 25
19 12 11 14 8 10 1 9 6 7 9 13 13 13 12 9 8 11 12 10 10 9 10 10 9 10 13 13 8 9 9 13 17 19 17 18 20 20 19 15 21 23 28
14 10 17 16 6 9 12 5 6 12 12 10 9 12 14 12 11 13 12 12 10 9 11 9 12 10 11 8 4 7 11 16 20 18 18 17 21 18 22 22 21 20 11
19 18 12 5 5 2 2 6 10 14 14 14 12 15 18 16 14 14 14 13 11 9 9 10 9 9 13 12 14 17 19 21 14 17 22 19 18 20 24 24 23 21 22
19 15 10 9 2 2 3 11 12 12 13 14 14 15 15 14 13 15 15 12 11 10 11 9 10 14 13 13 15 17 22 19 15 15 18 24 22 21 24 24 26 28 27
17 17 15 11 10 8 9 9 13 16 14 14 15 16 12 12 13 13 15 14 11 11 12 12 11 12 13 12 16 20 22 20 13 14 16 17 18 20 19 19 16 17 18
20 13 11 10 7 11 16 15 15 16 21 19 16 13 14 15 14 13 14 13 14 14 12 10 11 12 11 13 17 18 16 16 17 19 19 20 19 18 17 17 19 17 19
14 10 1 8 15 16 14 15 19 18 17 19 20 15 14 15 14 15 16 17 19 15 13 14 14 13 11 13 16 13 13 13 17 17 18 20 19 21 20 21 21 21 20
1 6 10 12 14 16 17 20 20 17 20 21 15 13 13 15 16 16 17 19 19 16 16 15 14 14 16 17 13 12 13 14 16 17 17 19 20 22 24 22 21 21 20
4 9 13 14 13 15 19 17 15 18 20 25 17 15 16 16 16 15 17 17 21 19 19 17 13 13 15 17 15 15 15 17 14 16 17 15 18 20 21 21 22 20 22
8 10 13 15 16 13 17 16 18 18 11 11 14 18 19 18 18 20 19 16 16 18 21 19 17 16 15 15 15 12 12 11 12 10 11 16 17 18 22 21 23 23 20
12 14 15 14 16 16 15 15 14 14 15 16 18 19 22 23 23 20 19 18 17 18 18 19 19 16 18 16 15 14 12 12 11 10 13 12 16 17 20 21 20 19 17
15 15 18 19 18 19 21 23 18 18 18 17 22 22 25 27 26 20 19 19 18 16 16 19 20 18 18 20 18 15 13 13 10 8 8 11 13 16 18 19 19 18 16
19 21 20 21 23 24 25 25 26 27 24 24 22 22 22 23 25 27 23 23 20 18 21 22 22 22 21 20 19 16 15 13 9 8 9 12 11 14 15 17 17 17 16
21 24 25 27 29 30 32 31 30 28 24 26 29 24 24 22 22 24 22 24 21 21 20 23 26 26 25 23 21 18 15 13 11 11 11 10 9 11 13 15 17 16 16
24 27 29 32 34 36 32 29 29 30 30 27 28 29 25 25 22 23 23 26 23 24 27 24 23 27 27 26 23 20 19 16 13 11 11 10 9 9 11 12 14 15 15
23 24 26 26 27 27 27 28 24 20 19 23 24 26 27 27 24 25 27 26 25 28 27 29 29 29 27 25 24 20 20 17 14 11 11 10 8 8 10 10 13 14 15
25 27 26 26 26 27 27 25 24 18 16 18 19 26 25 28 24 24 26 28 28 29 29 29 29 28 29 28 26 23 22 21 16 13 12 12 10 10 9 9 10 10 10
25 27 28 28 28 28 27 28 28 22 21 22 23 24 23 18 22 20 22 26 28 27 27 26 27 27 28 28 28 25 25 23 20 16 15 14 12 10 7 8 7 8 8
31 30 31 30 27 28 27 29 28 19 22 16 20 25 24 22 22 24 20 24 28 27 25 26 26 26 26 27 30 27 27 26 23 19 17 15 14 11 8 8 5 6 7
27 26 29 32 28 26 28 30 31 17 2 8 11 14 16 18 17 18 17 14 14 18 22 26 28 27 27 27 29 30 27 25 21 20 18 16 16 12 10 8 6 4 4
27 27 27 28 26 27 27 25 23 20 17 16 16 17 19 20 21 21 20 19 17 17 16 17 18 23 26 29 30 29 28 24 23 22 19 17 15 14 13 9 8 4 4
26 24 26 25 26 27 25 24 21 20 19 20 20 20 20 19 20 19 22 24 25 23 19 17 17 16 19 21 25 28 27 22 24 23 18 17 14 14 13 8 6 6 4
Wind_Direction
169 161 163 162 163 168 187 168 184 213 249 250 284 294 299 285 287 307 326 317 310 322 328 334 329 347 333 339 334 326 343 347 314 318 323 326 324 323 318 314 313 314 310
164 157 160 161 165 159 171 198 231 223 225 264 286 294 290 271 283 308 313 314 301 312 319 327 335 328 323 317 318 329 332 337 332 323 322 322 319 319 315 317 315 314 313
162 161 166 181 189 196 175 247 198 201 218 269 284 285 283 265 274 313 300 281 280 307 343 341 332 317 303 302 317 319 325 323 313 316 310 310 311 316 316 315 316 313 313
160 166 184 191 201 217 228 180 201 219 272 285 282 286 284 262 270 304 290 224 227 268 300 315 323 318 325 322 314 314 314 305 311 307 302 306 309 310 311 309 318 322 315
158 168 189 215 199 156 141 290 246 286 287 298 290 285 285 263 274 274 260 251 267 294 317 310 305 310 316 310 311 306 307 314 308 301 297 305 306 311 312 321 314 312 309
149 159 132 130 111 356 308 246 298 297 290 281 284 296 301 271 266 275 271 263 271 298 313 306 302 311 301 297 279 297 308 320 312 308 301 294 296 298 313 314 311 312 313
132 119 119 119 33 220 266 301 301 291 281 281 285 298 295 269 281 284 269 261 268 291 296 306 299 303 291 291 301 310 315 319 300 302 306 308 315 315 314 308 304 297 289
116 113 95 70 30 245 352 283 292 302 297 279 285 290 284 266 272 278 260 255 271 283 291 290 303 301 280 293 301 311 318 322 317 310 309 313 313 310 310 307 300 296 293
92 82 73 52 17 324 300 308 294 292 290 290 290 288 261 260 277 266 261 261 261 276 279 288 296 290 287 291 306 318 321 322 323 313 319 323 323 317 318 323 329 327 314
73 67 43 24 318 291 287 282 285 301 295 291 296 274 277 277 282 270 260 252 258 271 288 276 280 289 283 300 313 314 311 319 328 332 336 337 337 334 334 330 331 318 309
71 61 211 254 263 264 280 291 286 287 286 289 287 273 268 273 279 276 268 257 258 267 284 276 278 276 293 306 309 303 305 316 313 320 325 335 339 337 339 339 334 327 309
235 254 237 257 278 291 291 289 277 279 287 286 270 274 264 272 276 271 272 268 257 259 272 277 279 261 280 298 300 303 299 301 306 309 316 328 335 338 340 336 334 331 326
278 272 290 300 296 286 287 292 292 291 284 289 261 274 280 278 276 268 265 263 259 258 265 269 272 269 280 297 292 292 291 292 297 297 315 328 336 338 337 338 338 342 343
294 293 291 290 295 289 295 295 299 300 294 282 275 273 279 275 269 269 275 256 254 255 260 257 263 269 286 290 288 289 286 286 297 295 310 329 334 342 345 349 344 342 342
294 295 293 288 291 293 290 294 294 296 304 298 291 292 284 274 272 278 267 257 254 259 261 257 253 265 286 283 272 276 285 281 282 286 321 332 337 343 343 353 351 343 343
283 280 288 290 285 286 288 291 290 294 298 291 288 289 290 284 281 268 263 262 257 248 246 244 255 267 274 277 275 270 280 276 264 290 318 324 333 337 342 347 354 354 343
271 282 284 283 283 280 278 274 272 287 284 282 288 283 291 290 281 272 264 265 259 254 243 250 256 264 270 269 272 264 271 270 256 291 304 317 323 329 340 349 349 353 347
285 279 277 281 281 279 276 271 265 262 274 285 291 292 292 291 286 276 260 260 242 244 242 247 255 260 261 265 267 255 264 237 259 287 303 310 314 324 334 343 346 347 349
315 308 302 295 286 280 274 269 264 263 269 276 282 287 292 290 286 274 260 249 237 240 246 243 246 259 262 262 261 259 250 250 265 284 287 288 291 312 324 333 342 348 346
330 324 320 315 310 299 290 276 264 266 273 270 271 269 293 288 269 263 254 243 241 246 248 250 253 257 259 258 252 248 243 246 254 268 273 267 275 296 312 322 335 345 350
324 320 317 315 309 300 292 283 273 266 268 278 275 295 294 283 261 252 255 248 245 245 249 252 254 257 256 252 251 244 236 242 247 251 253 256 268 280 294 317 328 346 356
336 325 317 310 306 303 299 296 284 264 273 275 287 295 301 289 290 270 266 248 245 250 256 259 255 256 259 252 248 245 237 238 242 242 247 253 257 269 275 301 317 349 348
332 323 313 303 300 301 296 300 280 266 261 277 296 294 291 298 286 269 277 273 256 259 264 258 254 256 258 256 250 243 241 240 239 239 239 240 242 253 255 284 301 342 345
341 340 343 345 306 298 295 293 282 244 35 34 17 7 7 359 330 296 282 281 284 277 273 266 263 263 259 258 252 246 242 241 239 232 231 234 237 243 235 254 262 289 340
355 357 0 352 350 355 8 16 21 34 40 31 19 9 356 349 339 340 335 341 313 272 268 266 269 267 267 261 252 247 241 234 229 226 228 227 233 231 224 241 254 245 295
0 4 3 360 359 359 7 7 12 23 22 19 16 13 8 2 352 347 342 334 326 307 307 282 287 276 267 266 259 251 239 226 225 223 225 222 223 217 220 215 216 248 264